This demonstration page uses our WeatherBlox Daily Observations layout. Learn more.

Left ArrowRight Arrow

Hourly Observations for May 21, 2019

Temp ( °F °C ) Dew Point ( °F °C ) Humidity (%) Winds ( mph kmh ) Pressure ( in mb ) Visibility ( mi km ) Precip ( " mm )
12:15 am 00:15 Clear 45 7 45 7 100 100 NNE 8 13 30.13 1020 10 16.0934 N/A
12:35 am 00:35 Clear 45 7 45 7 100 100 NNE 6 9 30.12 1020 10 16.0934 N/A
12:55 am 00:55 Clear 45 7 45 7 100 100 N 5 7 30.14 1021 10 16.0934 N/A
1:15 am 01:15 Clear 45 7 45 7 100 100 NNE 3 6 30.15 1021 10 16.0934 N/A
1:35 am 01:35 Clear 45 7 45 7 100 100 N N/A 30.14 1021 10 16.0934 N/A
1:55 am 01:55 Clear 45 7 45 7 100 100 NNE 6 9 30.12 1020 10 16.0934 N/A
2:15 am 02:15 Clear 45 7 45 7 100 100 NE 8 13 30.11 1020 10 16.0934 N/A
2:35 am 02:35 Clear 45 7 45 7 100 100 ENE 6 9 30.12 1020 10 16.0934 N/A
2:55 am 02:55 Clear 46 8 45 7 93 93 NE 10 17 30.11 1020 10 16.0934 N/A
3:16 am 03:16 Clear 46 8 45 7 93 93 NNE 9 15 30.12 1020 10 16.0934 N/A
3:35 am 03:35 Clear 46 8 45 7 93 93 NE 9 15 30.11 1020 10 16.0934 N/A
3:55 am 03:55 Clear 46 8 45 7 93 93 ENE 9 15 30.11 1020 10 16.0934 N/A
4:15 am 04:15 Clear 45 7 45 7 100 100 ENE 9 15 30.11 1020 10 16.0934 N/A
4:35 am 04:35 Clear 45 7 45 7 100 100 NE 8 13 30.11 1020 10 16.0934 N/A
4:55 am 04:55 Clear 46 8 45 7 93 93 ENE 7 11 30.12 1020 10 16.0934 N/A
5:15 am 05:15 Clear 45 7 45 7 100 100 ENE 8 13 30.12 1020 10 16.0934 N/A
5:35 am 05:35 Clear 46 8 45 7 93 93 E 13 20 30.1 1019 10 16.0934 N/A
5:55 am 05:55 Clear 46 8 45 7 93 93 E 10 17 30.11 1020 10 16.0934 N/A
6:15 am 06:15 Clear 46 8 45 7 93 93 E 13 20 30.13 1020 10 16.0934 N/A
6:35 am 06:35 Sunny 46 8 45 7 93 93 E 7 11 30.14 1021 10 16.0934 N/A
6:55 am 06:55 Partly Cloudy 46 8 45 7 93 93 E 10 17 30.13 1020 10 16.0934 N/A
7:15 am 07:15 Mostly Cloudy 46 8 46 8 100 100 E 3 6 30.16 1021 10 16.0934 N/A
7:35 am 07:35 Partly Cloudy 46 8 46 8 100 100 ENE 5 7 30.16 1021 10 16.0934 N/A
7:55 am 07:55 Sunny 46 8 46 8 100 100 ENE 9 15 30.14 1021 10 16.0934 N/A
8:16 am 08:16 Sunny 48 9 46 8 94 94 E 9 15 30.14 1021 10 16.0934 N/A
8:35 am 08:35 Partly Cloudy 48 9 46 8 94 94 E 10 17 30.12 1020 10 16.0934 N/A
8:55 am 08:55 Partly Cloudy 48 9 46 8 94 94 E 12 19 30.12 1020 10 16.0934 N/A
9:15 am 09:15 Partly Cloudy 50 10 46 8 88 88 E 12 19 30.13 1020 10 16.0934 N/A
9:35 am 09:35 Mostly Cloudy 50 10 48 9 94 94 E 17 28 30.1 1019 10 16.0934 N/A
9:55 am 09:55 Cloudy 52 11 46 8 82 82 ESE 17 28 30.1 1019 10 16.0934 N/A
10:15 am 10:15 Cloudy 52 11 48 9 88 88 ESE 13 20 30.09 1019 10 16.0934 N/A
10:35 am 10:35 Mostly Cloudy 54 12 48 9 82 82 ESE 13 20 30.09 1019 10 16.0934 N/A
10:55 am 10:55 Mostly Cloudy 54 12 48 9 82 82 ESE 17 28 30.09 1019 10 16.0934 N/A
11:15 am 11:15 Cloudy 54 12 48 9 82 82 SE 17 28 30.1 1019 10 16.0934 N/A
11:35 am 11:35 Cloudy 54 12 48 9 82 82 SE 14 22 30.09 1019 10 16.0934 N/A
11:55 am 11:55 Cloudy 54 12 48 9 82 82 ESE 12 19 30.1 1019 10 16.0934 N/A
12:15 pm 12:15 Cloudy 54 12 50 10 88 88 ESE 14 22 30.1 1019 10 16.0934 N/A
12:35 pm 12:35 Cloudy 55 13 50 10 82 82 E 15 24 30.09 1019 10 16.0934 N/A
12:56 pm 12:56 Cloudy 55 13 50 10 82 82 E 18 30 30.08 1019 10 16.0934 N/A
1:15 pm 13:15 Cloudy 55 13 50 10 82 82 ESE 10 17 30.09 1019 10 16.0934 N/A
1:35 pm 13:35 Cloudy 55 13 50 10 82 82 ESE 13 20 30.08 1019 10 16.0934 N/A
1:56 pm 13:56 Cloudy 55 13 50 10 82 82 E 10 17 30.08 1019 10 16.0934 N/A
2:15 pm 14:15 Cloudy 54 12 52 11 94 94 ESE 10 17 30.07 1018 10 16.0934 N/A
2:35 pm 14:35 Cloudy 54 12 52 11 94 94 E 12 19 30.07 1018 10 16.0934 N/A
2:55 pm 14:55 Cloudy 54 12 52 11 94 94 E 10 17 30.06 1018 10 16.0934 N/A
3:35 pm 15:35 Cloudy 55 13 52 11 88 88 E 10 17 30.06 1018 10 16.0934 N/A
3:55 pm 15:55 Cloudy 55 13 52 11 88 88 E 8 13 30.06 1018 10 16.0934 N/A
4:15 pm 16:15 Cloudy 55 13 54 12 94 94 E 9 15 30.06 1018 7 11.26538 N/A
4:55 pm 16:55 Cloudy 54 12 54 12 100 100 E 9 15 30.05 1018 7 11.26538 N/A
5:15 pm 17:15 Cloudy 54 12 54 12 100 100 E 10 17 30.04 1017 10 16.0934 N/A
5:35 pm 17:35 Cloudy 54 12 54 12 100 100 E 8 13 30.04 1017 10 16.0934 N/A
5:55 pm 17:55 Cloudy 54 12 54 12 100 100 E 13 20 30.04 1017 7 11.26538 N/A
6:15 pm 18:15 Cloudy 52 11 52 11 100 100 E 18 30 30.04 1017 10 16.0934 N/A
6:36 pm 18:36 Cloudy 52 11 52 11 100 100 E 17 28 30.02 1016 10 16.0934 N/A
6:55 pm 18:55 Cloudy 52 11 52 11 100 100 E 20 31 30.02 1016 10 16.0934 N/A
7:15 pm 19:15 Mostly Cloudy 52 11 52 11 100 100 E 17 28 30.01 1016 10 16.0934 N/A
7:35 pm 19:35 Partly Cloudy 52 11 52 11 100 100 E 14 22 30.01 1016 10 16.0934 N/A
7:55 pm 19:55 Partly Cloudy 52 11 50 10 94 94 E 16 26 30 1016 10 16.0934 N/A
8:15 pm 20:15 Mostly Cloudy 52 11 50 10 94 94 E 13 20 30 1016 10 16.0934 N/A
8:35 pm 20:35 Partly Cloudy 54 12 50 10 88 88 E 13 20 29.99 1016 10 16.0934 N/A
8:55 pm 20:55 Sunny 54 12 50 10 88 88 E 13 20 29.98 1015 10 16.0934 N/A
9:15 pm 21:15 Clear 54 12 50 10 88 88 E 13 20 29.98 1015 10 16.0934 N/A
9:35 pm 21:35 Clear 54 12 50 10 88 88 E 15 24 29.97 1015 10 16.0934 N/A
9:55 pm 21:55 Clear 54 12 50 10 88 88 E 13 20 29.97 1015 10 16.0934 N/A
10:15 pm 22:15 Clear 54 12 50 10 88 88 E 14 22 29.98 1015 10 16.0934 N/A
10:35 pm 22:35 Clear 54 12 50 10 88 88 E 13 20 29.98 1015 10 16.0934 N/A
10:55 pm 22:55 Clear 54 12 50 10 88 88 E 13 20 29.98 1015 10 16.0934 N/A
11:15 pm 23:15 Clear 54 12 50 10 88 88 E 13 20 29.97 1015 10 16.0934 N/A
11:35 pm 23:35 Clear 54 12 50 10 88 88 E 14 22 29.96 1015 10 16.0934 N/A
11:55 pm 23:55 Clear 55 13 50 10 82 82 ESE 16 26 29.95 1014 10 16.0934 N/A

Powered by AerisWeather